Погода Кочубей

Погода Кочубей : погода сейчас, прогноз погоды и архив. Всё, что Вы хотите узнать о погоде Кочубей!

Поиск расширенной информации на нашем сайте:

Другие новости

Новости СМИ2

Главная страница сайта

Новости сайта

03.07.2017

Напоминаем, что на нашем специализированном сайте Метеоцентр.Азия вы можете получить высокодетализированные автоматические прогнозы погоды по пунктам России, СНГ и мира в авиационном формате (включающие направление и скорость ветра, видимость, явления погоды, количество и форму облачности, нижнюю и верхнюю границу облачности).


Погода Кочубей - сегодня

Время (UTC), дата Ветер
(°,м/с) 
Видим.   Явления Облачность Т
(°С)
Тd
(°С)
f(%) Тe
(°С)
Pmin
(гПа)
dP
(гПа)
Po
(мм)
O2
(г/м3)
Тmin Tmax R s Состояние
почвы
21 11.11.18 340 (С) 4000 м    10/10 600 м 
[Sc]
+1.7 +1.2 96 -1  1033  0.3  777  311           
00 12.11.18 020 (С) 4000 м    10/10 600 м 
[Sc]
+2.3 +1.7 96 -1  1032.7  -0.3  777  310           
03 12.11.18 020 (С) 4000 м    10/10 600 м 
[Sc]
+3.4 +2.2 92 +1  1033  -0.3  777  309  +1.6         
06 12.11.18 050 (СВ) 8-11{11}  20000 м    10/10 600 м 
[Sc]
+4.1 +2.2 87 +1  1033.5  -0.3  777  308           
09 12.11.18 050 (СВ) 8{12}  20000 м    10/10 600 м 
[Sc]
+4 +2 87 +1  1033.1  -0.4  777  308           
12 12.11.18 050 (СВ) 6{11}  20000 м    10/10 600 м 
[Sc]
+4 +2 87 +1  1032.5  -0.6  776  308           
15 12.11.18 020 (С) 4000 м    10/10 600 м 
[Sc]
+3.1 +2.3 94 +1  1033  0.5  777  309    +4.3       
18 12.11.18 300 (СЗ) 4000 м    10/10 600 м 
[Sc]
+2.9 +2.5 97 +1  1031.4  -1.6  776  309           
21 12.11.18 090 (В) 4000 м  слаб. дождь  10/10 600 м 
[Frnb|Ns]
+7.4 +7 97 +6  1029.8  -1.6  774  303           
00 13.11.18 080 (В) //  4000 м  {дождь}  10/10 600 м 
[Sc]
+5.7 +5 95 +6  1030.3  0.4  775  305           
03 13.11.18 070 (В) //  4000 м  слаб. дождь  10/10 600 м 
[Frnb|Ns]
+8 +7.8 99 +8  1028.6  -1.7  773  301  +2.9    0.3     
06 13.11.18 050 (СВ) //  10 км  слаб. дождь  10/10 300 м 
[Frnb|Ns]
+7.8 +6.7 93 +8  1032.1  3.4  776  303           
12 13.11.18 080 (В) 9-13{15}  20000 м  {дождь}  10/10 600 м 
[Sc]
+7.2 +4.1 81 +4  1030.6  0.2  775  304           
15 13.11.18 070 (В) 9-14  4000 м    10/10 600 м 
[Sc]
+6.9 +3 76 +4  1031.5  776  304    +8.2  0.0     
18 13.11.18 080 (В) 8-14{14}  4000 м    10/10 600 м 
[Sc]
+7.2 +2 69 +5  1031.6  0.1  776  304           
21 13.11.18 080 (В) 8-12{14}  4000 м    10/10 600 м 
[Sc]
+7.3 +2 69 +5  1030.6  -1  775  304           
00 14.11.18 080 (В) 8-12{12}  4000 м    ясно 
+6.3 +1 69 +3  1029.9  -0.7  775  305           
03 14.11.18 080 (В) 4000 м    10/10 600 м 
[Sc]
+6.4 +2.1 74 +4  1029.4  -0.5  774  305  +5.9        влажная 
06 14.11.18 090 (В) 10-15{15}  20000 м    8/8 600 м 
[Sc]
+7.7 +2.8 71 +5  1029.6  0.1  774  303           
09 14.11.18 090 (В) 10-15{17}  20000 м    8/6 600 м кучево-дожд., средняя 
[Cb calv|Ac trans]
+8.7 +1.7 61 +6  1028.4  -1.2  773  302           
12 14.11.18 090 (В) 10-14{16}  20000 м    8/0 верхняя 
[Sc|Ci fib]
+7.2 +0.8 64 +4  1027.9  -0.5  773  303           
18 14.11.18 080 (В) 7-10{12}  4000 м    3/3 600 м 
[Sc]
+6 -0.2 64 +3  1026.6  -0.8  772  304           
21 14.11.18 080 (В) 7{12}  4000 м    10/10 600 м 
[Sc]
+6.9 +0.9 66 +4  1025.5  -0.8  771  303           
00 15.11.18 070 (В) 8-12{13}  4000 м    8/8 600 м 
[]
+6.8 +1.6 69 +4  1023.6  -1.9  770  302           
03 15.11.18 070 (В) 10-14  4000 м    10/10 600 м 
[]
+7.1 +3.2 76 +4  1022.8  -0.8  769  302  +5.9         
Время (UTC), дата Ветер
(°,м/с) 
Видим.   Явления Облачность Т
(°С)
Тd
(°С)
f(%) Тe
(°С)
Pmin
(гПа)
dP
(гПа)
Po
(мм)
O2
(г/м3)
Тmin Tmax R s Состояние
почвы

Для получения пояснительной информации подведите курсор к названию столбца.

ПОГОДА Кочубей - архив

Всё, что Вы хотите узнать о погоде Кочубей - удобно и подробно!

Выберите нужную дату (начиная с 1 января 2015* года) и нажмите кнопку "Найти".
Будут отображены архивные сводки погоды по пункту Кочубей, начиная с указанной даты.


Отображать данные в формате CSV (для использования в таблицах Excel)


Внимание! Наш архив погоды предназначен исключительно для личного некоммерческого использования в познавательных целях. Если Вам необходимы официальные справки о состоянии погоды (для производственных, юридических, коммерческих и т.п. целей), обращайтесь в органы Росгидромета.

*Примечание: данная дата относится к архиву по метеостанциям СССР (Россия, СНГ, Балтия).
Архив по метеостанциям Зарубежной Европы и Азии (кроме Китая) хранится 10 дней, по другим регионам земного шара (Китай, Африка, Америка, Австралия, Океания) - 1 день.

Кочубей - район местоположения метеостанции


Название, широта, долгота, высота метеостанции:
Кочубей 44.4°ш. 46.6°д. -21 м над ур. моря [Российская Федерация]

Дополнительная информация

В oтличие oт бoльшинства пoгoдных сайтoв мы публикуем пoдрoбную метеoинфoрмацию в детальнoм прoфессиoнальнoм фoрмате.

Характеристики температуры и влажнoсти вoздуха измеряются на высoте 2 м в тени вдали oт зданий и деревьев.
Скoрoсть ветра измеряется на высoте 10 м (на урoвне рoста челoвека скoрoсть ветра ниже в 1.5-2 раза). Если метеoстанция нахoдится в гoрoде или в лесу, тo скoрoсть ветра занижена на 2-4 м/с пo сравнению с oткрытым местoм. Скoрoсть ветра над акватoриями крупных рек и oзёр, а также на вершинах хoлмoв на 2-5 м/с выше, чем в oбычных услoвиях.
Атмoсфернoе давление в разных тoчках местнoсти мoжет значительнo oтличаться oт давления на метеoстанции, в зависимoсти oт услoвий рельефа (при пoдъёме на 10 м давление пoнижается примернo на 1 мм рт.ст.).